Find Starlink 3344

NORAD ID: 51110 Int'l Des: 2022-005 Owner: SPXS Country: US Constellation: starlink operational
LEOCIRCULAR

当前视图

正在加载3D地球...

About Starlink 3344

Starlink 3344 (NORAD 51110) is a starlink constellation satellite (v1.5) launched Jan 19, 2022 by SPXS of US. It operates in LEO, CIRCULAR orbit with a mass of 297.00 kg.

即将过境

Passes for default location (London). Set your location on the main map for personalized predictions.

高度历史

Loading altitude history...

两行轨道根数

1 51110U 22005G 26264.89331201 .00000362 00000-0 21847-4 0 9991
2 51110 53.1603 119.1361 0001131 80.4340 279.6790 15.34391822258626
Epoch: Sep 21, 2026 • Age: 5 hours

当前状态

高度 462.8 km
远地点 / 近地点 N/A
速度 7.64 km/s
星下点 10.77°N, 113.83°W
发射日期 Jan 19, 2022
运行时间 4.6 years
类型 internet

技术详情

分类 Payload
质量 297.00 kg
干质量 275.00 kg
长度 0.20 m
跨度 9.00 m
形状 ? Box + pan
制造商 SPXS
平台类型 Starlink
阶段状态 In Orbit
所有者/国家 SPXS/US

Most Searched